www.pogodaiklimat.ru

Погода и климат >> Архив погоды >> Индонезия >> Таремпа


ПОГОДА в Таремпе

  • Прогноз погоды в Таремпе
  • Монитор погоды в Таремпе

АРХИВ ПОГОДЫ в Таремпе

Время (UTC), дата Ветер
(напр.,м/с)
 
Видим.   Явления Облачность Т
(С)
Тd
(С)
f
(%)
Тe
(С)
Тes
(С)
Комфортность P
(гПа)
Po
(гПа)
Тmin
(С)
Tmax
(С)
R
(мм)
R24
(мм)
S
(см)
03 18.06 Ю 3 5000 м мгла {дождь} 10/4 480 м
[Sc As op]
+29.0 +24.7 78 +41 +43 опасность
перегрева
1010.7 1010.5 0.3
06 18.06 Ю 5 4000 м в посл. час дождь 9/5 480 м
[Cb calv As op Ci fib]
+30.0 +25.1 75 +43 +46 опасность
перегрева
1009.8 1009.5 0.3
09 18.06 Ю 2 6000 м {дождь} 9/5 500 м
[Cu med, cong As op]
+30.0 +25.1 75 +43 +44 опасность
перегрева
1008.2 1008.0 0.0
12 18.06 Ю 2 6000 м {дождь} 9/4 500 м
[Cu med, cong As op]
+28.0 +24.4 81 +39 +39 очень
душно
1008.7 1008.5 +31.2 0.0
15 18.06 Ю 2 6000 м 4/3 500 м
[Cu hum Ci fib]
+27.0 +24.7 87 +38 +38 очень
душно
1010.1 1009.9
18 18.06 Ю 2 6000 м 9/3 500 м
[Cu hum As op]
+26.8 +24.7 88 +38 +38 очень
душно
1010.0 1009.7
21 18.06 Ю 2 6000 м 9/3 500 м
[Cu hum As op]
+26.6 +24.8 90 +38 +38 очень
душно
1009.0 1008.7
00 19.06 ЮВ 2 2000 м слаб. дождь 10/6 480 м
[Sc As op]
+25.2 +23.7 91 +34 +34 очень
душно
1011.4 1011.1 +24.8 16
03 19.06 Ю 5 6000 м в посл. час дождь 10/3 500 м
[Cu hum As op]
+26.8 +22.9 79 +36 +37 очень
душно
1010.9 1010.6 5
06 19.06 ЮВ 2 6000 м в посл. час дождь 9/3 500 м
[Cu hum As op]
+29.8 +23.7 70 +41 +45 опасность
перегрева
1008.9 1008.6 0.2
09 19.06 ЮВ 2 6000 м 9/4 500 м
[Cu hum As op]
+29.4 +23.6 71 +40 +41 очень
душно
1007.4 1007.1
12 19.06 Ю 2 6000 м 9/4 500 м
[Cu med, cong As op]
+27.2 +23.7 81 +37 +37 очень
душно
1008.4 1008.2 +30.0
15 19.06 Ю 4 6000 м 9/4 500 м
[Cu med, cong As op]
+26.2 +22.3 79 +34 +34 очень
душно
1009.1 1008.8
18 19.06 Ю 2 6000 м 9/4 500 м
[Cu hum As op]
+25.9 +23.1 85 +35 +35 очень
душно
1008.7 1008.4
21 19.06 Ю 2 6000 м 8/3 500 м
[Cu hum As op Ci fib]
+26.4 +23.8 86 +36 +36 очень
душно
1008.4 1008.2
00 20.06 Ю 1 6000 м 8/3 500 м
[Cu med, cong Ac As]
+26.6 +24.5 88 +37 +38 очень
душно
1009.9 1009.6 +25.0 5
03 20.06 Ю 3 6000 м 5/4 500 м
[Cu med, cong Ac trans Ci fib]
+32.4 +25.0 65 +46 +53 опасность
перегрева
1009.9 1009.6
06 20.06 Ю 5 6000 м 3/3 500 м
[Cu hum Ci fib]
+33.0 +24.4 61 +46 +53 опасность
перегрева
1008.4 1008.1
09 20.06 Ю 3 7000 м 4/3 500 м
[Cb calv Ci fib]
+31.6 +24.8 67 +45 +48 опасность
перегрева
1007.5 1007.2
12 20.06 Ю 2 6000 м 5/1 500 м
[Cu hum Ac trans Ci fib]
+29.2 +24.6 76 +41 +41 опасность
перегрева
1008.3 1008.1 +33.4
15 20.06 Ю 2 6000 м 5/1 500 м
[Cu hum Ac trans Ci fib]
+27.8 +25.2 86 +40 +40 очень
душно
1010.0 1009.7
18 20.06 штиль 0 6000 м 8/4 500 м
[Cu med, cong As op Ci fib]
+27.6 +25.5 88 +40 +40 очень
душно
1008.8 1008.6
21 20.06 В 1 4000 м слаб. дождь 9/5 480 м
[Cu Sc As op]
+25.6 +23.1 86 +34 +34 очень
душно
1008.9 1008.7 5
00 21.06 Ю 3 6000 м в посл. час дождь 10/3 480 м
[Sc As op]
+25.6 +23.8 90 +35 +35 очень
душно
1008.7 1008.5 +23.9 0.6
03 21.06 штиль 0 6000 м 9/4 500 м
[Cu hum As op Ci fib]
+29.0 +25.0 79 +42 +49 опасность
перегрева
1009.3 1009.0
06 21.06 Ю 4 6000 м 9/4 500 м
[Cu med, cong As op]
+32.0 +24.3 64 +44 +47 опасность
перегрева
1007.6 1007.4
09 21.06 Ю 4 6000 м 6/1 500 м
[Cu hum Ac As Ci fib]
+30.0 +24.5 72 +42 +44 опасность
перегрева
1006.6 1006.3
12 21.06 Ю 2 6000 м 9/4 480 м
[Sc As op]
+28.6 +24.8 80 +41 +41 опасность
перегрева
1007.6 1007.3 +32.2
15 21.06 Ю 1 6000 м 9/3 500 м
[Cu hum As op]
+27.6 +24.7 84 +39 +39 очень
душно
1008.7 1008.4
18 21.06 штиль 0 2000 м слаб. ливневой дождь, в посл. час гроза 10/5 300 м
[Cu med, cong As op]
+24.0 +23.2 95 +32 +32 очень
душно
1007.7 1007.4 43
21 21.06 Ю 3 3000 м слаб. дождь 10/5 480 м
[Cu med, cong As op]
+25.0 +24.1 95 +34 +34 очень
душно
1007.2 1006.9 2
00 22.06 3000 м дождь н/о +25.0 +24.1 95 +34 +35 очень
душно
1008.7 1008.5 +24.0 10
03 22.06 Ю 3 4000 м слаб. дождь 10/6 480 м
[Cu med, cong As op]
+26.2 +24.7 91 +37 +38 очень
душно
1009.1 1008.8 6
06 22.06 Ю 2 6000 м {дождь} 9/4 480 м
[Cu med, cong As op]
+28.5 +24.9 81 +41 +45 опасность
перегрева
1007.9 1007.6 0.4
09 22.06 Ю 2 4000 м слаб. дождь 10/6 480 м
[Sc As op]
+25.4 +23.4 89 +34 +35 очень
душно
1007.1 1006.9 32
12 22.06 штиль 0 5000 м в посл. час дождь 10/4 480 м
[Cu med, cong As op]
+25.6 +24.7 95 +36 +36 очень
душно
1008.0 1007.8 +29.8 6
15 22.06 СЗ 3 4000 м слаб. дождь 10/4 480 м
[Cu med, cong As op]
+25.8 +24.6 93 +36 +36 очень
душно
1009.8 1009.6 2
18 22.06 Ю 3 4000 м слаб. дождь 10/5 480 м
[Sc As op]
+25.4 +23.9 91 +35 +35 очень
душно
1007.9 1007.6 8
21 22.06 Ю 2 5000 м {дождь} 6/3 500 м
[Cu hum As op Ci fib]
+25.4 +24.2 93 +35 +35 очень
душно
1007.0 1006.7 0.5
00 23.06 ЮВ 1 5000 м мгла {дождь} 6/4 500 м
[Sc Ac As Ci fib]
+26.4 +24.9 91 +38 +39 очень
душно
1008.4 1008.1 +23.4 55
03 23.06 Ю 5 7000 м 6/1 500 м
[Cu hum As trans Ci sp]
+30.6 +24.6 70 +43 +49 опасность
перегрева
1008.6 1008.4
06 23.06 ЮВ 4 5000 м мгла 6/3 500 м
[Cu med, cong Ac trans Ci fib]
+31.9 +24.9 67 +45 +53 опасность
перегрева
1007.2 1006.9
09 23.06 Ю 5 5000 м мгла 6/4 500 м
[Cu med, cong Ac As Ci fib]
+31.0 +24.1 67 +43 +44 опасность
перегрева
1006.2 1005.9
12 23.06 Ю 1 4000 м мгла 8/3 500 м
[Cu med, cong As op Ci fib]
+29.0 +25.0 79 +42 +42 опасность
перегрева
1007.4 1007.1 +33.0
15 23.06 Ю 1 4000 м мгла 9/4 500 м
[Cu med, cong As op]
+28.7 +24.5 78 +41 +41 опасность
перегрева
1009.3 1009.1
18 23.06 ЮВ 2 6000 м 9/4 500 м
[Cu med, cong As op]
+27.8 +24.6 83 +39 +39 очень
душно
1009.0 1008.8
21 23.06 штиль 0 6000 м 8/1 500 м
[Cu hum As op Ci fib]
+26.8 +25.1 90 +39 +39 очень
душно
1008.3 1005.1
00 24.06 ЮВ 1 5000 м мгла 6/1 500 м
[Cu hum Ac As Ci fib]
+27.4 +25.1 87 +39 +41 очень
душно
1009.4 1009.1 +26.0
03 24.06 Ю 3 5000 м мгла 9/5 500 м
[Cu med, cong As op]
+31.6 +24.8 67 +45 +47 опасность
перегрева
1010.7 1010.4
06 24.06 Ю 5 2000 м слаб. дождь 10/6 480 м
[Sc As op]
+27.8 +24.6 83 +39 +40 очень
душно
1009.1 1008.8 14
09 24.06 Ю 3 5000 м мгла {дождь} 8/3 500 м
[Cu hum As op Ci fib]
+30.2 +25.1 74 +44 +45 опасность
перегрева
1007.6 1007.4 3
12 24.06 Ю 1 5000 м {морось, дождь} 6/1 500 м
[Cu hum As trans Ci sp]
+29.0 +25.2 80 +42 +42 опасность
перегрева
1009.1 1008.8 +33.2 3
15 24.06 штиль 0 5000 м мгла 6/6 500 м
[]
+27.8 +25.2 86 +40 +40 очень
душно
1010.8 1010.5
18 24.06 штиль 0 5000 м мгла 9/3 500 м
[Cu hum Ac As]
+28.0 +25.4 86 +41 +41 опасность
перегрева
1009.7 1009.4
21 24.06 штиль 0 5000 м мгла 8/1 500 м
[Cu hum Ac As]
+26.8 +25.1 90 +39 +39 очень
душно
1008.9 1008.7
00 25.06 Ю 2 5000 м мгла 5/1 500 м
[Cu hum As op Ci fib]
+27.2 +24.9 87 +39 +40 очень
душно
1009.9 1009.7 +25.2 17

 

Местоположение метеостанции Таремпа (Индонезия): широта 3.20 долгота 106.25 высота над уровнем моря 3 м.

В архиве по умолчанию представлена погода в Таремпе за последнюю неделю. Архивные данные за месяц целиком и за предыдущие месяцы, начиная с января 2011 года, Вы можете получить, выбрав интересующий диапазон дат из раскрывающегося списка и нажав кнопку "Ввод!".


*Определитесь, кто Вы:
робот инопланетянин человек

Внимание! Время в таблицах - всемирное. Для получения местного времени необходимо прибавить поправку, которая равна 7 ч.

Смотрите также архив погоды в соседних городах и на ближайших метеорологических станциях:

Погода в Ранаи (Индонезия) (251 км)
Погода в Танджунгпинанге (Индонезия) (318 км)
Погода в Сингапуре (Сингапур) (324 км)
Погода в Аэропорту Ханга Надима (Индонезия) (332 км)
Погода в Аэропорту Сеная (Малайзия) (336 км)
Погода в Куантане (Малайзия) (344 км)
Погода в Мерсинге (Малайзия) (367 км)
Погода в Парохе (Индонезия) (374 км)
Погода в Куала-Тренггану (Малайзия) (425 км)
Погода в Аэропорту Дабо (Индонезия) (449 км)

Пояснения к столбцам:

Ветер - указаны скорость ветра в м/с - средняя за 10 мин, порывы в срок и между сроками (в фигурных скобках) и направление, откуда дует ветер: С - северный, СВ - северо-восточный, В - восточный, ЮВ - юго-восточный, Ю - южный, ЮЗ - юго-западный, З - западный, СЗ - северо-западный.
Видимость - горизонтальная дальность видимости в метрах или километрах. При видимости от 1 до 10 км при отсутствии осадков обычно наблюдается дымка, при ухудшении видимости до 1 км и менее - туман. В сухую погоду видимость может ухудшаться дымом, пылью или мглою.
Явления - указаны атмосферные явления, наблюдавшиеся в срок или в последний час перед сроком; фигурными скобками обозначены явления, наблюдавшиеся между сроками (за 1-3 часа до срока); квадратными скобками обозначены град или гололедные отложения с указанием их диаметра в мм.
Облачность - указаны через наклонную черту общая и нижняя облачность в баллах и высота нижней границы облаков в метрах; квадратными скобками обозначены формы облаков: Ci - перистые, Cs - перисто-слоистые, Cc - перисто-кучевые, Ac - высококучевые, As - высокослоистые, Sc - слоисто-кучевые, Ns - слоисто-дождевые, Cu - кучевые, Cb - кучево-дождевые. Подробнее классификацию облаков см. в Атласе облаков (PDF).
T - Температура воздуха - температура, измеренная на высоте 2 м над землей.
Td - Температура точки росы - температура, при понижении до которой содержащийся в воздухе водяной пар достигнет насыщения.
f - Относительная влажность воздуха - влажноcть воздуха, измеренная на высоте 2 м над землей.
Te - Эффективная температура - температура, которую ощущает одетый по сезону человек в тени. Характеристика душности погоды. При расчете учитывается влияние влажности воздуха и скорости ветра на теплоощущения человека.
Tes - Эффективная температура на солнце - температура, которую ощущает человек, с поправкой на солнечный нагрев. Характеристика знойности погоды. Зависит от высоты солнца над горизонтом, облачности и скорости ветра. Ночью, в пасмурную погоду, а также при ветре 12 м/с и более поправка равна нулю.
P - Атмосферное давление - приведенное к уровню моря атмосферное давление.
Po - Атмосферное давление - измеренное на уровне метеостанции атмосферное давление.
Tmin - Минимальная температура - минимум температуры воздуха на высоте 2 м над землей.
Tmax - Максимальная температура - максимум температуры воздуха на высоте 2 м над землей.
R - Количество осадков - Количество выпавших осадков за период времени, мм. При наведении курсора мыши на число - период времени, за который выпало указанное количество осадков.
R24 - Количество осадков - Количество выпавших осадков за 24 часа, мм.
S - Снежный покров - Высота снежного покрова, см. При наведении курсора мыши на число - состояние снежного покрова и степень покрытия местности в баллах.